Weather History for Pleasanton, TX

Change the Weather History Date:

Wednesday, May 1, 2013

  Actual Average Record
Temperature  
Mean Temperature 79 °F -  
Max Temperature 90 °F 86 °F 96 °F (2011)
Min Temperature 68 °F 62 °F 48 °F (2014)
Cooling Degree Days 14    
Growing Degree Days 29 (Base 50)    
Moisture  
Dew Point 66 °F    
Average Humidity 70    
Maximum Humidity 95    
Minimum Humidity 42    
Precipitation  
Precipitation 0.00 in - - ()
Sea Level Pressure  
Sea Level Pressure 29.82 in    
Wind  
Wind Speed 5 mph (ESE)    
Max Wind Speed 10 mph    
Max Gust Speed 16 mph    
Visibility 9 miles    
Events      
Averages and records for this station are not official NWS values.
T = Trace of Precipitation, MM = Missing Value Source: NWS Daily Summary

Daily Weather History Graph

Daily Weather History Graph

Search for Another Location

Airport:

Trip Planner

Search our weather history database for the weather conditions in past years. The results will help you decide how hot, cold, wet, or windy it might be!

Date:

Astronomy

May. 01, 2013 Rise Set
Actual Time 6:52 AM CDT 8:10 PM CDT
Civil Twilight 6:27 AM CDT 8:35 PM CDT
Nautical Twilight 5:57 AM CDT 9:05 PM CDT
Astronomical Twilight 5:26 AM CDT 9:36 PM CDT
Moon 1:19 AM CDT (5/1) 12:32 PM CDT (5/1)
Length of Visible Light 14h 07m
Length of Day
13h 17m
Waning Gibbous, 59% of the Moon is Illuminated
May 1
Waning Gibbous
May 2
Last Quarter
May 9
New
May 17
First Quarter
May 24
Full

Hourly Weather History & Observations

Time (CDT) Temp. Heat Index Dew Point Humidity Pressure Visibility Wind Dir Wind Speed Gust Speed Precip Events Conditions
12:15 AM 70.7 °F - 66.2 °F 86% 29.79 in 10.0 mi ESE 5.8 mph - N/A   Clear
12:35 AM 70.3 °F - 66.4 °F 87% 29.79 in 10.0 mi ESE 3.5 mph - N/A   Clear
12:55 AM 70.0 °F - 66.6 °F 89% 29.80 in 10.0 mi ESE 5.8 mph - N/A   Scattered Clouds
1:15 AM 70.7 °F - 66.7 °F 87% 29.80 in 10.0 mi ESE 5.8 mph - N/A   Overcast
1:35 AM 70.7 °F - 66.9 °F 88% 29.81 in 10.0 mi SE 4.6 mph - N/A   Overcast
1:55 AM 70.9 °F - 67.1 °F 88% 29.81 in 10.0 mi SE 6.9 mph - N/A   Overcast
2:15 AM 71.1 °F - 66.6 °F 86% 29.80 in 10.0 mi ESE 5.8 mph - N/A   Overcast
2:35 AM 71.4 °F - 66.6 °F 85% 29.79 in 10.0 mi East 6.9 mph - N/A   Overcast
2:55 AM 71.2 °F - 66.6 °F 85% 29.79 in 10.0 mi SE 4.6 mph - N/A   Overcast
3:15 AM 71.1 °F - 66.9 °F 87% 29.78 in 10.0 mi ESE 3.5 mph - N/A   Overcast
3:35 AM 71.1 °F - 66.9 °F 87% 29.78 in 10.0 mi Calm Calm - N/A   Overcast
3:55 AM 70.7 °F - 67.1 °F 88% 29.78 in 10.0 mi SE 3.5 mph - N/A   Overcast
4:15 AM 70.7 °F - 67.3 °F 89% 29.78 in 10.0 mi Calm Calm - N/A   Overcast
4:35 AM 70.9 °F - 67.5 °F 89% 29.78 in 10.0 mi East 3.5 mph - N/A   Overcast
4:55 AM 70.7 °F - 67.3 °F 89% 29.80 in 10.0 mi North 4.6 mph - N/A   Overcast
5:15 AM 70.7 °F - 67.3 °F 89% 29.80 in 10.0 mi NE 4.6 mph - N/A   Overcast
5:35 AM 70.2 °F - 67.1 °F 90% 29.80 in 10.0 mi Calm Calm - N/A   Overcast
5:55 AM 70.0 °F - 67.1 °F 91% 29.80 in 7.0 mi Calm Calm - N/A   Mostly Cloudy
6:15 AM 69.3 °F - 66.9 °F 92% 29.80 in 7.0 mi Calm Calm - N/A   Mostly Cloudy
6:35 AM 68.5 °F - 66.4 °F 93% 29.80 in 5.0 mi Calm Calm - N/A   Clear
6:55 AM 68.0 °F - 66.2 °F 94% 29.81 in 4.0 mi Calm Calm - N/A   Clear
7:15 AM 68.2 °F - 66.6 °F 95% 29.81 in 5.0 mi Calm Calm - N/A   Mostly Cloudy
7:35 AM 68.4 °F - 66.9 °F 95% 29.82 in 4.0 mi Calm Calm - N/A   Scattered Clouds
7:55 AM 69.3 °F - 67.6 °F 95% 29.82 in 5.0 mi Calm Calm - N/A   Scattered Clouds
8:15 AM 70.2 °F - 68.4 °F 94% 29.83 in 5.0 mi ESE 3.5 mph - N/A   Overcast
8:35 AM 71.6 °F - 68.7 °F 91% 29.83 in 5.0 mi SE 8.1 mph - N/A   Overcast
8:55 AM 72.7 °F - 68.0 °F 85% 29.83 in 7.0 mi SSE 8.1 mph - N/A   Mostly Cloudy
9:15 AM 72.9 °F - 66.7 °F 81% 29.84 in 10.0 mi SSE 9.2 mph - N/A   Overcast
9:35 AM 73.8 °F - 66.2 °F 77% 29.85 in 10.0 mi SSE 8.1 mph - N/A   Overcast
9:55 AM 74.7 °F - 65.7 °F 73% 29.85 in 10.0 mi South 10.4 mph - N/A   Overcast
10:15 AM 75.6 °F - 66.2 °F 73% 29.85 in 10.0 mi SSE 8.1 mph - N/A   Overcast
10:35 AM 76.5 °F - 65.8 °F 70% 29.85 in 10.0 mi SE 4.6 mph - N/A   Overcast
11:15 AM 79.0 °F - 65.5 °F 63% 29.85 in 10.0 mi SE 8.1 mph - N/A   Mostly Cloudy
11:35 AM 80.4 °F 82.4 °F 66.0 °F 61% 29.85 in 10.0 mi SSE 9.2 mph - N/A   Scattered Clouds
12:15 PM 81.9 °F 84.1 °F 66.2 °F 59% 29.84 in 10.0 mi ESE 9.2 mph - N/A   Scattered Clouds
12:35 PM 83.5 °F 85.5 °F 65.8 °F 55% 29.84 in 10.0 mi East 9.2 mph - N/A   Scattered Clouds
12:55 PM 84.0 °F 85.8 °F 65.1 °F 53% 29.84 in 10.0 mi SSE 9.2 mph - N/A   Scattered Clouds
1:15 PM 85.3 °F 86.8 °F 64.6 °F 50% 29.83 in 10.0 mi South 4.6 mph - N/A   Scattered Clouds
1:35 PM 86.2 °F 88.2 °F 65.3 °F 50% 29.83 in 10.0 mi SE 4.6 mph - N/A   Scattered Clouds
1:55 PM 86.7 °F 88.4 °F 64.8 °F 48% 29.83 in 10.0 mi Calm Calm - N/A   Scattered Clouds
2:15 PM 87.3 °F 89.2 °F 65.3 °F 48% 29.83 in 10.0 mi Calm Calm - N/A   Scattered Clouds
2:35 PM 87.4 °F 88.8 °F 64.6 °F 46% 29.82 in 10.0 mi SSE 5.8 mph - N/A   Scattered Clouds
2:55 PM 89.2 °F 91.3 °F 65.1 °F 45% 29.82 in 10.0 mi East 3.5 mph - N/A   Scattered Clouds
3:15 PM 89.6 °F 91.1 °F 64.2 °F 43% 29.81 in 10.0 mi SE 9.2 mph - N/A   Mostly Cloudy
3:35 PM 88.3 °F 89.9 °F 64.4 °F 45% 29.80 in 10.0 mi SE 3.5 mph - N/A   Scattered Clouds
3:55 PM 90.7 °F 92.4 °F 64.4 °F 42% 29.80 in 10.0 mi SSE 5.8 mph - N/A   Scattered Clouds
4:15 PM 88.9 °F 89.7 °F 63.1 °F 42% 29.80 in 10.0 mi Calm Calm - N/A   Scattered Clouds
4:35 PM 88.5 °F 89.5 °F 63.3 °F 43% 29.79 in 10.0 mi SE 6.9 mph - N/A   Scattered Clouds
4:55 PM 90.1 °F 92.0 °F 64.6 °F 43% 29.79 in 10.0 mi NNE 3.5 mph - N/A   Scattered Clouds
5:15 PM 90.1 °F 92.0 °F 64.6 °F 43% 29.78 in 10.0 mi ENE 4.6 mph - N/A   Scattered Clouds
5:35 PM 90.1 °F 92.0 °F 64.6 °F 43% 29.78 in 10.0 mi East 6.9 mph - N/A   Mostly Cloudy
5:55 PM 89.6 °F 91.5 °F 64.9 °F 44% 29.78 in 10.0 mi East 9.2 mph - N/A   Scattered Clouds
6:15 PM 89.2 °F 90.9 °F 64.6 °F 44% 29.78 in 10.0 mi East 6.9 mph - N/A   Scattered Clouds
6:35 PM 88.2 °F 90.3 °F 65.3 °F 47% 29.78 in 10.0 mi East 9.2 mph 16.1 mph N/A   Scattered Clouds
6:55 PM 86.9 °F 88.6 °F 65.1 °F 48% 29.78 in 10.0 mi East 4.6 mph - N/A   Scattered Clouds
7:15 PM 86.5 °F 88.7 °F 65.8 °F 50% 29.78 in 10.0 mi East 8.1 mph - N/A   Scattered Clouds
7:35 PM 85.3 °F 87.4 °F 65.7 °F 52% 29.78 in 10.0 mi East 8.1 mph - N/A   Clear
7:55 PM 84.0 °F 86.0 °F 65.8 °F 54% 29.79 in 10.0 mi East 6.9 mph - N/A   Clear
8:15 PM 82.8 °F 84.9 °F 66.2 °F 57% 29.80 in 10.0 mi East 6.9 mph - N/A   Clear
8:35 PM 81.3 °F 83.5 °F 66.4 °F 60% 29.81 in 10.0 mi East 3.5 mph - N/A   Clear
8:55 PM 81.0 °F 83.2 °F 66.4 °F 61% 29.82 in 10.0 mi ESE 6.9 mph - N/A   Clear
9:35 PM 79.9 °F - 67.3 °F 65% 29.85 in 10.0 mi ESE 6.9 mph - N/A   Clear
9:55 PM 79.3 °F - 67.5 °F 67% 29.86 in 10.0 mi ESE 8.1 mph - N/A   Clear
10:15 PM 78.1 °F - 67.5 °F 70% 29.87 in 10.0 mi SE 9.2 mph - N/A   Clear
10:35 PM 77.4 °F - 67.3 °F 71% 29.88 in 10.0 mi ESE 6.9 mph - N/A   Clear
10:55 PM 76.8 °F - 67.3 °F 72% 29.88 in 10.0 mi ESE 9.2 mph - N/A   Clear
11:15 PM 75.6 °F - 67.1 °F 75% 29.89 in 10.0 mi East 9.2 mph - N/A   Clear
11:35 PM 75.2 °F - 66.9 °F 75% 29.90 in 10.0 mi East 9.2 mph - N/A   Clear
11:55 PM 74.3 °F - 66.6 °F 77% 29.91 in 10.0 mi East 8.1 mph - N/A   Scattered Clouds